DW8587 Weather Reports


Display with metric or nautical units.
time (UTC)temp
F
wind
direction
speed
MPH
gust
MPH
rain 1hr
in
rain 24hr
in
rain mn
in
humidity
%
barometer
mb
20260503224541 58 44 1.0 2.0 0.00 0.00 0.00 71 1016.9
20260503223041 58 44 1.0 3.0 0.00 0.00 0.00 70 1016.9
20260503221542 58 44 1.0 3.0 0.00 0.00 0.00 70 1016.9
20260503220035 59 44 2.0 4.0 0.00 0.00 0.00 68 1016.8
20260503214534 60 103 2.0 3.0 0.00 0.00 0.00 66 1016.7
20260503213044 60 173 0.0 2.0 0.00 0.00 0.00 64 1016.7
20260503211532 61 173 0.0 2.0 0.00 0.00 0.00 61 1016.6
20260503210032 61 173 0.0 2.0 0.00 0.00 0.00 60 1016.5
20260503204546 62 173 0.0 2.0 0.00 0.00 0.00 59 1016.6
20260503203032 62 173 0.0 1.0 0.00 0.00 0.00 57 1016.6
20260503201630 63 173 0.0 1.0 0.00 0.00 0.00 55 1016.5
20260503200029 63 173 0.0 1.0 0.00 0.00 0.00 53 1016.3
20260503194529 64 173 0.0 0.0 0.00 0.00 0.00 52 1016.3
20260503193035 65 173 0.0 1.0 0.00 0.00 0.00 49 1016.1
20260503191528 66 173 0.0 2.0 0.00 0.00 0.00 47 1016.0
20260503190036 66 173 1.0 3.0 0.00 0.00 0.00 47 1015.7
20260503184536 68 169 2.0 7.0 0.00 0.00 0.00 47 1015.6
20260503183027 68 181 4.0 8.0 0.00 0.00 0.00 47 1015.6
20260503181526 69 158 1.0 4.0 0.00 0.00 0.00 45 1015.5
20260503180026 70 202 0.0 2.0 0.00 0.00 0.00 45 1015.5
20260503174525 70 202 0.0 3.0 0.00 0.00 0.00 44 1015.5
20260503173032 70 202 1.0 3.0 0.00 0.00 0.00 43 1015.4
20260503171523 71 205 2.0 4.0 0.00 0.00 0.00 44 1015.5
20260503120116 70 207 5.0 10.0 0.00 0.00 0.00 45 1017.8
20260503081525 65 179 2.0 7.0 0.00 0.00 0.00 56 1018.5
20260503071517 64 81 3.0 8.0 0.00 0.00 0.00 60 1018.5
20260503054557 55 39 2.0 4.0 0.00 0.00 0.00 76 1018.6
20260503053053 54 38 2.0 4.0 0.00 0.00 0.00 76 1018.5
20260503051554 53 39 2.0 5.0 0.00 0.00 0.00 77 1018.4
20260503050051 53 38 4.0 6.0 0.00 0.00 0.00 78 1018.4
20260503044546 52 46 3.0 5.0 0.00 0.00 0.00 78 1018.4
20260503043047 52 35 3.0 5.0 0.00 0.00 0.00 78 1018.5
20260503041541 51 38 3.0 4.0 0.00 0.00 0.00 78 1018.5
20260503040047 52 30 2.0 4.0 0.00 0.00 0.00 78 1018.4
20260503034554 52 42 2.0 4.0 0.00 0.00 0.00 78 1018.4
20260503033043 52 36 2.0 4.0 0.00 0.00 0.00 78 1018.4
20260503031541 52 33 3.0 5.0 0.00 0.00 0.00 78 1018.5
20260503030047 52 34 2.0 4.0 0.00 0.00 0.00 78 1018.5
20260503024534 52 40 2.0 4.0 0.00 0.00 0.00 77 1018.6
20260503023033 52 29 3.0 6.0 0.00 0.00 0.00 77 1018.5
20260503021539 53 42 3.0 6.0 0.00 0.00 0.00 76 1018.7
20260503020029 53 34 0.0 3.0 0.00 0.00 0.00 76 1018.9
20260503014527 53 40 3.0 5.0 0.00 0.00 0.00 75 1018.8
20260503013026 54 355 2.0 4.0 0.00 0.00 0.00 75 1018.8
20260503011525 54 26 4.0 9.0 0.00 0.00 0.00 75 1018.8
20260503010023 54 38 4.0 6.0 0.00 0.00 0.00 75 1019.0
20260503004522 54 39 5.0 9.0 0.00 0.00 0.00 75 1019.1
20260503003021 54 43 3.0 6.0 0.00 0.00 0.00 75 1019.3
20260503001517 54 46 4.0 7.0 0.00 0.00 0.00 75 1019.4
20260503000014 54 48 3.0 5.0 0.00 0.00 0.00 74 1019.6
20260502234511 54 355 3.0 8.0 0.00 0.00 0.00 74 1019.7
20260502233010 54 28 2.0 5.0 0.00 0.00 0.00 74 1019.9
20260502231605 54 44 3.0 6.0 0.00 0.00 0.00 73 1020.0
20260502230054 55 344 3.0 4.0 0.00 0.00 0.00 73 1020.0